(231725) = 1999 CL156 = 2004 TY70 = 2005 YD252

Discovered at Kitt Peak on 1999-02-08 by Spacewatch.

Orbit

Orbit type: Main Belt

Note: WebGL enabled browser required.

epoch2023-09-13.0
epoch JD2460200.5
perihelion date2022-01-25.59597
perihelion JD2459605.09597
argument of perihelion (°)80.30739
ascending node (°)154.86029
inclination (°)2.41259
eccentricity0.1444412
perihelion distance (AU)2.0573949
Tisserand w.r.t. Jupiter3.5
ΔV w.r.t. Earth (km/sec)9.0
semimajor axis (AU)2.4047382
mean anomaly (°)157.36709
mean daily motion (°/day)0.26430300
aphelion distance (AU)2.752
period (years)3.73
P-vector [x]-0.57080552
P-vector [y]-0.76887395
P-vector [z]-0.28812136
Q-vector [x]0.82089053
Q-vector [y]-0.52673957
Q-vector [z]-0.22064489
absolute magnitude17.57
phase slope0.15
uncertainty0
referenceMPEC 2023-X62
observations used198
oppositions14
arc length (days)9065
first opposition used1999
last opposition used2023
residual rms (arc-secs)0.87
perturbers coarse indicatorM-v
perturbers precise indicator003Ek
first observation date used1999-02-08.0
last observation date used2023-12-04.0
computer nameMPCLINUX
JD of orbit computation2456937.535583
perihelion JD uncertainty (days)9.2747E-05
argument of perihelion uncertainty (°)1.6559E-04
ascending node uncertainty (°)1.6406E-04
inclination uncertainty (°)7.1778E-06
eccentricity uncertainty 7.8931E-08
perihelion distance uncertainty (AU)1.9354E-07
Minimum Orbit Intersection Distances (in AU)
for orbit epoch: 2460200.5, reference: E2023-X62
Mercury1.59774
Venus1.33314
Earth1.04677
Mars0.48391
Jupiter2.23813
Saturn6.33876
Uranus16.1145
Neptune27.1078

Observations

210 total observations over interval: 1999 02 08.40318 – 2023 12 04.477696
These data are available for download (format description).

Date (UT) J2000 RA J2000 Dec Magn Location Ref
1999 02 08.40318 11 35 28.63 +02 56 29.7 21.3 V 691 – Steward Observatory, Kitt Peak-Spacewatch MPS 16453
1999 02 08.42402 11 35 28.15 +02 56 34.5 21.7 V 691 – Steward Observatory, Kitt Peak-Spacewatch MPS 16453
1999 02 08.44475 11 35 27.64 +02 56 39.6 20.7 V 691 – Steward Observatory, Kitt Peak-Spacewatch MPS 16453
1999 02 09.38241 11 35 05.83 +03 00 21.5 20.8 V 691 – Steward Observatory, Kitt Peak-Spacewatch MPS 16453
1999 02 09.40399 11 35 05.38 +03 00 26.0 19.4 V 691 – Steward Observatory, Kitt Peak-Spacewatch MPS 16453
1999 02 09.42495 11 35 04.71 +03 00 31.4 21.1 V 691 – Steward Observatory, Kitt Peak-Spacewatch MPS 16453
2000 08 26.21908 23 11 14.69 -05 41 04.2 20.4 R 807 – Cerro Tololo Observatory, La Serena MPS 164910
2000 08 26.27600 23 11 11.64 -05 41 26.7   807 – Cerro Tololo Observatory, La Serena MPS 164910
2003 03 30.36913 14 52 32.01 -12 57 29.3 21.1 V 291 – LPL/Spacewatch II MPS 164910
2003 03 30.39288 14 52 31.62 -12 57 24.9 21.3 V 291 – LPL/Spacewatch II MPS 164910
2003 03 30.41661 14 52 31.21 -12 57 20.0 21.6 V 291 – LPL/Spacewatch II MPS 164910
2003 04 04.37720 14 50 54.88 -12 39 18.4 20.9 V 291 – LPL/Spacewatch II MPS 164910
2003 04 04.40130 14 50 54.25 -12 39 12.9 20.5 V 291 – LPL/Spacewatch II MPS 164910
2003 04 04.43097 14 50 53.44 -12 39 05.3 21.2 V 291 – LPL/Spacewatch II MPS 164910
2003 04 28.27379 14 34 25.33 -10 42 09.9 19.1 C 704 – Lincoln Laboratory ETS, New Mexico MPS 290098
2003 04 28.28581 14 34 24.61 -10 42 07.1 19.6 C 704 – Lincoln Laboratory ETS, New Mexico MPS 290098
2003 04 28.30978 14 34 23.48 -10 41 58.3 16.9 C 704 – Lincoln Laboratory ETS, New Mexico MPS 290098
2003 04 28.32176 14 34 22.54 -10 41 55.3 19.0 C 704 – Lincoln Laboratory ETS, New Mexico MPS 290098
2003 04 29.35846 14 33 27.95 -10 36 26.8 19.6 V 691 – Steward Observatory, Kitt Peak-Spacewatch MPS 164910
2003 04 29.38615 14 33 26.39 -10 36 18.0 19.8 V 691 – Steward Observatory, Kitt Peak-Spacewatch MPS 164910
2003 04 29.41349 14 33 24.90 -10 36 09.4 20.5 V 691 – Steward Observatory, Kitt Peak-Spacewatch MPS 164910
2003 05 01.26427 14 31 47.38 -10 26 33.8 18.8 C 704 – Lincoln Laboratory ETS, New Mexico MPS 290098
2003 05 01.27606 14 31 46.82 -10 26 31.6 19.0 C 704 – Lincoln Laboratory ETS, New Mexico MPS 290098
2003 05 01.29989 14 31 45.58 -10 26 22.7 18.9 C 704 – Lincoln Laboratory ETS, New Mexico MPS 290098
2003 05 01.31167 14 31 44.74 -10 26 17.0 18.9 C 704 – Lincoln Laboratory ETS, New Mexico MPS 290098
2003 05 05.26776 14 28 16.45 -10 06 27.4 19.1   704 – Lincoln Laboratory ETS, New Mexico MPS 164910
2003 05 05.28006 14 28 15.77 -10 06 22.7 19.3   704 – Lincoln Laboratory ETS, New Mexico MPS 164910
2003 05 05.29243 14 28 15.10 -10 06 18.8 19.6   704 – Lincoln Laboratory ETS, New Mexico MPS 164910
2003 05 05.30473 14 28 14.37 -10 06 14.7 19.6   704 – Lincoln Laboratory ETS, New Mexico MPS 164910
2003 05 05.31719 14 28 13.70 -10 06 11.1 19.9   704 – Lincoln Laboratory ETS, New Mexico MPS 164910
2003 05 10.25601 14 24 02.59 -09 43 23.2 19.9 V 691 – Steward Observatory, Kitt Peak-Spacewatch MPS 164910
2003 05 10.28234 14 24 01.25 -09 43 16.4 20.5 V 691 – Steward Observatory, Kitt Peak-Spacewatch MPS 164910
2003 05 10.30844 14 23 59.87 -09 43 09.6 20.5 V 691 – Steward Observatory, Kitt Peak-Spacewatch MPS 164910
2003 05 29.26328 14 12 03.84 -08 48 59.4 21.2 V 691 – Steward Observatory, Kitt Peak-Spacewatch MPS 164910
2003 05 29.29032 14 12 03.11 -08 48 56.8 21.2 V 691 – Steward Observatory, Kitt Peak-Spacewatch MPS 164910
2003 05 29.31648 14 12 02.50 -08 48 55.6 20.6 V 691 – Steward Observatory, Kitt Peak-Spacewatch MPS 164910
2004 10 06.32958 00 56 10.58 +03 22 22.3 21.5 V 291 – LPL/Spacewatch II MPS 117774
2004 10 06.33342 00 56 10.33 +03 22 20.8 21.2 V 291 – LPL/Spacewatch II MPS 117774
2004 10 06.33749 00 56 10.12 +03 22 19.5 21.4 V 291 – LPL/Spacewatch II MPS 117774
2004 10 08.18162 00 54 29.09 +03 10 29.8 20.8 V 691 – Steward Observatory, Kitt Peak-Spacewatch MPS 117774
2004 10 08.20941 00 54 27.51 +03 10 19.0 20.7 V 691 – Steward Observatory, Kitt Peak-Spacewatch MPS 117774
2004 10 08.23607 00 54 26.01 +03 10 08.8 21.0 V 691 – Steward Observatory, Kitt Peak-Spacewatch MPS 117774
2004 11 05.224447 00 33 15.734 +00 49 34.09 21.67 V 645 – Apache Point-Sloan Digital Sky Survey MPS 390358
2004 11 05.227919 00 33 15.615 +00 49 33.49 22.40   645 – Apache Point-Sloan Digital Sky Survey MPS 390358
2005 12 29.27314 07 35 01.13 +18 44 03.5   691 – Steward Observatory, Kitt Peak-Spacewatch MPS 159200
2005 12 29.29050 07 35 00.11 +18 44 05.9   691 – Steward Observatory, Kitt Peak-Spacewatch MPS 159200
2005 12 29.30784 07 34 59.05 +18 44 09.0   691 – Steward Observatory, Kitt Peak-Spacewatch MPS 159200
2008 10 28.38460 02 42 26.60 +12 11 10.5 20.2 V G96 – Mt. Lemmon Survey MPS 261232
2008 10 28.39012 02 42 26.28 +12 11 08.3 19.1 V G96 – Mt. Lemmon Survey MPS 261232
2008 10 28.39558 02 42 25.95 +12 11 06.9 19.7 V G96 – Mt. Lemmon Survey MPS 261232
2008 10 28.40106 02 42 25.63 +12 11 05.6 20.1 V G96 – Mt. Lemmon Survey MPS 261232
2008 11 02.14659 02 37 49.02 +11 47 24.6   691 – Steward Observatory, Kitt Peak-Spacewatch MPS 262976
2008 11 02.16427 02 37 47.97 +11 47 19.1   691 – Steward Observatory, Kitt Peak-Spacewatch MPS 262976
2008 11 02.18193 02 37 46.94 +11 47 14.1   691 – Steward Observatory, Kitt Peak-Spacewatch MPS 262976
2008 11 20.17963 02 21 14.46 +10 26 31.6 21.5 V 691 – Steward Observatory, Kitt Peak-Spacewatch MPS 265115
2008 11 20.19328 02 21 13.76 +10 26 29.0 21.5 V 691 – Steward Observatory, Kitt Peak-Spacewatch MPS 265115
2008 11 20.20693 02 21 13.06 +10 26 25.7 21.1 V 691 – Steward Observatory, Kitt Peak-Spacewatch MPS 265115
2010 02 06.33323 09 46 20.28 +12 24 26.1 20.5 V G96 – Mt. Lemmon Survey MPS 312924
2010 02 06.33490 09 46 20.17 +12 24 26.7 20.4 V G96 – Mt. Lemmon Survey MPS 312924
2010 02 06.33660 09 46 20.06 +12 24 28.2 20.9 V G96 – Mt. Lemmon Survey MPS 312924
2010 02 06.33829 09 46 19.99 +12 24 28.5 20.2 V G96 – Mt. Lemmon Survey MPS 312924
2010 02 16.15539 09 36 43.08 +13 24 44.8 20.0 V 691 – Steward Observatory, Kitt Peak-Spacewatch MPS 312924
2010 02 16.17308 09 36 42.06 +13 24 51.1 20.4 V 691 – Steward Observatory, Kitt Peak-Spacewatch MPS 312924
2010 02 16.19079 09 36 40.95 +13 24 57.8 20.3 V 691 – Steward Observatory, Kitt Peak-Spacewatch MPS 312924
2010 03 12.24424 09 16 38.20 +15 32 00.3 20.4 V G96 – Mt. Lemmon Survey MPS 317782
2010 03 12.25279 09 16 37.92 +15 32 02.5 21.1 V G96 – Mt. Lemmon Survey MPS 317782
2010 03 12.26140 09 16 37.52 +15 32 04.5 21.0 V G96 – Mt. Lemmon Survey MPS 317782
2010 03 12.26993 09 16 37.23 +15 32 05.6 20.7 V G96 – Mt. Lemmon Survey MPS 317782
2010 04 10.14825 09 13 20.38 +16 20 03.6 21.3 V G96 – Mt. Lemmon Survey MPS 323354
2010 04 10.15474 09 13 20.46 +16 20 03.4 21.5 V G96 – Mt. Lemmon Survey MPS 323354
2010 04 10.16134 09 13 20.64 +16 20 02.5 20.5 V G96 – Mt. Lemmon Survey MPS 323354
2010 04 10.16794 09 13 20.74 +16 20 03.1 21.2 V G96 – Mt. Lemmon Survey MPS 323354
2014 01 11.50986 12 29 57.71 -02 47 18.5 21.2 V G96 – Mt. Lemmon Survey MPS 496874
2014 01 11.51880 12 29 58.10 -02 47 20.9 21.3 V G96 – Mt. Lemmon Survey MPS 496874
2014 01 11.52774 12 29 58.60 -02 47 23.7 21.5 V G96 – Mt. Lemmon Survey MPS 496874
2014 01 11.53667 12 29 59.03 -02 47 25.7 21.0 V G96 – Mt. Lemmon Survey MPS 496874
2014 02 26.54201 12 45 07.751 -03 11 08.65 20.6 w F51 – Pan-STARRS 1, Haleakala MPS 503660
2014 02 26.55439 12 45 07.475 -03 11 05.57 20.7 w F51 – Pan-STARRS 1, Haleakala MPS 503660
2014 02 27.37465 12 44 51.15 -03 07 47.0 20.4 V 691 – Steward Observatory, Kitt Peak-Spacewatch MPS 503660
2014 02 27.39233 12 44 50.73 -03 07 42.9 20.3 V 691 – Steward Observatory, Kitt Peak-Spacewatch MPS 503660
2014 02 27.40999 12 44 50.32 -03 07 38.2 20.6 V 691 – Steward Observatory, Kitt Peak-Spacewatch MPS 503660
2014 03 26.73735 12 26 36.06 -00 20 24.1 19.4 R D29 – Purple Mountain Observatory, XuYi Station MPS 508211
2014 03 26.75326 12 26 35.28 -00 20 15.5 20.4 R D29 – Purple Mountain Observatory, XuYi Station MPS 508211
2014 03 26.76916 12 26 34.42 -00 20 09.1 19.8 R D29 – Purple Mountain Observatory, XuYi Station MPS 508211
